Location: Newark
(34.9500°N, 139.9667°E)
Time: 12:48:07
(UTC+00:00)

Vanguard 2 Rocket - Pass Details

Date: 13 December 2019
Orbit: 554 x 3326 km, 32.9° (Epoch: 24 January)

Event Time Altitude Azimuth Distance (km) Brightness Sun altitude
Rises 13:27:04 0° 279° (W) 4,530 - -71.2°
Reaches altitude 10° 13:31:13 10° 269° (W) 3,072 - -71.9°
Maximum altitude 13:36:48 25° 216° (SW) 1,627 - -72.8°
Drops below altitude 10° 13:40:45 10° 159° (SSE) 2,109 - -73.4°
Sets 13:43:03 0° 145° (SE) 2,860 - -73.8°
